[[{"header":{"parameterUnit":"m.s-1","parameterCategory":2,"la1":30.2991,"la2":30.254,"lo1":-89.0895,"lo2":-89.0444,"dy":0.0017,"dx":0.0017,"nx":28,"ny":28,"refTime":"2024-12-18T09:00:00:Z","depth":"0","parameterNumber":2,"parameterNumberName":"U-component_of_CURRENTS"},"data":[0,0,0,0,0,0,0,0,0,0,0,0,0,0,0,0,0,0,0,0,0,0,0,0,0,0,0,0,0,0,0,0,0,0,0,0,0,0,0,0,0,0,0,0,0,0,0,0,0,0,0,0,0,0,0,0,0,0,0.3713,0.3714,0,0.377,0.3771,0.3771,0.3796,0.3796,0.3796,0.3796,0.378,0.378,0.3779,0,0,0,0,0,0,0,0,0,0,0,0,0,0.3622,0.3623,0.3713,0.3714,0.3715,0.377,0.3771,0.3771,0.3796,0.3796,0.3796,0.3796,0.378,0.378,0.3779,0,0,0,0,0,0,0,0,0,0,0,0,0,0.3667,0.3624,0.3713,0.3735,0.3737,0.377,0.3771,0.3772,0.3796,0.3796,0.3796,0.3796,0.378,0.378,0.3779,0.3773,0,0,0.3777,0.3777,0,0,0,0,0,0,0,0,0.3664,0.367,0.3731,0.3733,0.3736,0.3777,0.3733,0.3769,0.3796,0.3772,0.3796,0.3796,0.3773,0.3773,0.3782,0.3772,0.3771,0.3777,0.3776,0.3776,0.3776,0,0,0,0,0,0,0,0.3661,0.3668,0.3734,0.3732,0.3735,0.3741,0.3747,0.374,0.3769,0.3774,0.3776,0.3785,0.3774,0.3783,0.3782,0.3771,0.3777,0.3776,0.3776,0.3775,0.3795,0.3796,0,0,0,0,0,0,0.3658,0.3665,0.3732,0.3736,0.3702,0.3743,0.375,0.3763,0.377,0.3773,0.3785,0.3786,0.3784,0.3783,0.3781,0.382,0.3776,0.3775,0.3775,0.3794,0.3795,0.3796,0,0,0,0,0,0,0.3656,0.3663,0.373,0.3703,0.3712,0.3744,0.3759,0.3764,0.3777,0.378,0.3781,0.3793,0.3784,0.3782,0.3786,0.3817,0.3775,0.3774,0.3793,0.3794,0.3796,0.3867,0,0,0,0,0,0,0.3653,0.3662,0.3665,0.3703,0.3713,0.3755,0.3759,0.3765,0.3783,0.3785,0.3787,0.3786,0.3784,0.3788,0.3786,0.3816,0.3774,0.3792,0.3794,0.3795,0.3863,0.3871,0.3877,0,0,0,0,0,0.365,0.3659,0.3665,0.3673,0.3718,0.3756,0.3762,0.3783,0.3783,0.3793,0.3797,0.3786,0.3798,0.3788,0.3785,0.3816,0.3791,0.3793,0.3795,0.386,0.3869,0.3877,0,0,0,0,0,0,0.3617,0.3663,0.3671,0.3692,0.3722,0.376,0.3775,0.3784,0.3796,0.3798,0.3792,0.3791,0.3814,0.3796,0.3785,0.3826,0.3795,0.3796,0.3845,0.3853,0.386,0.3891,0.3773,0,0,0,0,0,0.3612,0.3634,0.3673,0.3691,0.3709,0.3739,0.3754,0.3773,0.3792,0.3798,0.3796,0.38,0.3821,0.382,0.3829,0.3838,0.3878,0.3857,0.3864,0.3869,0.3893,0.3971,0.3988,0.3803,0.3803,0.3803,0,0,0.36,0.3632,0.3641,0.3686,0.3713,0.3745,0.3749,0.3783,0.3812,0.3792,0.3817,0.3823,0.383,0.3858,0.3865,0.3845,0.3947,0.3872,0.3877,0.3898,0.3976,0.3994,0.401,0.3805,0.3804,0.3804,0,0,0.3598,0.3624,0.3641,0.3674,0.3721,0.3749,0.3759,0.3796,0.3818,0.3838,0.3849,0.3876,0.3872,0.3906,0.3918,0.3961,0.3986,0.3953,0.4007,0.4083,0.41,0.4115,0.4214,0.4237,0.395,0.395,0.395,0,0.358,0.3616,0.365,0.3682,0.3716,0.3752,0.3784,0.3815,0.3845,0.3877,0.3852,0.3912,0.3907,0.3982,0.4001,0.3981,0.4033,0.3978,0.4095,0.4111,0.4125,0.4223,0.4248,0.3954,0.3953,0.3953,0.3952,0,0.3596,0.3627,0.3647,0.3703,0.3739,0.3779,0.3832,0.3864,0.3885,0.3921,0.3988,0.3995,0.4036,0.4038,0.4031,0.4134,0.4144,0.4103,0.4081,0.4149,0.4247,0.4272,0.3959,0.3958,0.3956,0.3956,0,0,0.3555,0.364,0.3645,0.3683,0.376,0.3795,0.3858,0.3936,0.3997,0.402,0.4099,0.4135,0.4153,0.4169,0.4172,0.4229,0.4374,0.4211,0.4213,0.4322,0.4576,0.4595,0.4624,0.4356,0.436,0.4363,0.4613,0,0.3559,0.362,0.3665,0.373,0.3774,0.3841,0.3903,0.3979,0.404,0.4121,0.417,0.4235,0.42,0.4229,0.4288,0.4354,0.4439,0.4313,0.4483,0.4489,0.4508,0.4652,0.4446,0.4653,0.4638,0.4642,0.4645,0,0.3559,0.3609,0.3668,0.3773,0.3799,0.3838,0.3968,0.4031,0.4162,0.4214,0.4299,0.4336,0.4447,0.4386,0.4566,0.4489,0.4552,0.4593,0.4602,0.4615,0.4554,0.4576,0.4698,0.4571,0.4683,0.468,0.4677,0,0.353,0.3614,0.3667,0.37,0.3815,0.3858,0.3925,0.4054,0.4131,0.4283,0.4346,0.4477,0.4544,0.4642,0.4735,0.4663,0.4939,0.4841,0.4932,0.4934,0.4791,0.4774,0.4819,0.4991,0.4991,0.499,0.4989,0,0.3533,0.3573,0.3652,0.3686,0.3764,0.3846,0.3946,0.4043,0.4179,0.4302,0.4386,0.4514,0.4609,0.4761,0.4823,0.4993,0.5022,0.5003,0.5017,0.4812,0.4794,0.47,0.4641,0.4999,0.4997,0.4995,0.4994,0,0.3502,0.3553,0.3618,0.372,0.3753,0.381,0.394,0.4016,0.415,0.4313,0.4364,0.4573,0.4805,0.4918,0.512,0.5113,0.513,0.5306,0.5081,0.5064,0.4978,0.4931,0.4863,0.472,0.5441,0.5443,0.5445,0,0.3499,0.3525,0.3622,0.3659,0.3702,0.3787,0.3851,0.3992,0.4086,0.4371,0.4455,0.4719,0.4912,0.5225,0.5307,0.5468,0.527,0.5335,0.5147,0.5011,0.4968,0.4738,0.4602,0.4995,0.4993,0.4992,0.499,0,0.3498,0.3521,0.3579,0.3649,0.3704,0.3768,0.3874,0.3937,0.4141,0.4276,0.4535,0.4712,0.5048,0.5149,0.5357,0.5409,0.5066,0.5309,0.5204,0.4689,0.4403,0.4256,0.4817,0.4976,0.4978,0.4979,0.4979,0.498,0.3495,0.3527,0.3595,0.3651,0.3704,0.3753,0.3773,0.3899,0.4039,0.4244,0.451,0.4713,0.4927,0.5207,0.5231,0.5112,0.5063,0.4922,0.4905,0.4707,0.4465,0.5038,0.518,0.5183,0.5185,0.5187,0.5189,0,0.3513,0.3548,0.3597,0.3652,0.3659,0.3706,0.3789,0.3789,0.39,0.4161,0.4361,0.4577,0.4711,0.4834,0.4837,0.4679,0.441,0.4564,0.4145,0.4052,0.4606,0.448,0.4431,0.4431,0.4431,0.4431,0.4431,0.4431,0.353,0.3576,0.3591,0.3597,0.3609,0.3577,0.359,0.361,0.3739,0.388,0.3992,0.4164,0.4408,0.4585,0.4453,0.434,0.3975,0.3841,0.3841,0.4196,0.4223,0.4249,0.4114,0.3989,0.3988,0.3044,0.3037,0.3032]},{"header":{"parameterUnit":"m.s-1","parameterCategory":2,"la1":30.2991,"la2":30.254,"lo1":-89.0895,"lo2":-89.0444,"dy":0.0017,"dx":0.0017,"nx":28,"ny":28,"refTime":"2024-12-18T09:00:00:Z","depth":"0","parameterNumber":3,"parameterNumberName":"V-component_of_CURRENTS"},"data":[0,0,0,0,0,0,0,0,0,0,0,0,0,0,0,0,0,0,0,0,0,0,0,0,0,0,0,0,0,0,0,0,0,0,0,0,0,0,0,0,0,0,0,0,0,0,0,0,0,0,0,0,0,0,0,0,0,0,-0.0586,-0.0586,0,-0.0618,-0.0619,-0.062,-0.0697,-0.0698,-0.0699,-0.07,-0.0772,-0.0773,-0.0774,0,0,0,0,0,0,0,0,0,0,0,0,0,-0.0666,-0.0664,-0.0586,-0.0586,-0.0586,-0.0618,-0.0619,-0.062,-0.0696,-0.0698,-0.0699,-0.07,-0.0772,-0.0773,-0.0774,0,0,0,0,0,0,0,0,0,0,0,0,0,-0.0663,-0.0663,-0.0586,-0.0623,-0.0626,-0.0618,-0.0619,-0.062,-0.0696,-0.0698,-0.0699,-0.0701,-0.0771,-0.0773,-0.0774,-0.0751,0,0,-0.0778,-0.0779,0,0,0,0,0,0,0,0,-0.0663,-0.0661,-0.0618,-0.0621,-0.0624,-0.065,-0.0673,-0.0664,-0.0696,-0.0676,-0.07,-0.0701,-0.0729,-0.0734,-0.0745,-0.0755,-0.0758,-0.0778,-0.0779,-0.078,-0.078,0,0,0,0,0,0,0,-0.0663,-0.0661,-0.0605,-0.0617,-0.0621,-0.0664,-0.0665,-0.0673,-0.0699,-0.0678,-0.0682,-0.0675,-0.0733,-0.0744,-0.0747,-0.0759,-0.0778,-0.078,-0.0781,-0.0781,-0.0779,-0.0778,0,0,0,0,0,0,-0.0641,-0.066,-0.0604,-0.0605,-0.0641,-0.066,-0.0662,-0.0645,-0.0698,-0.0706,-0.0674,-0.0679,-0.074,-0.0746,-0.075,-0.0737,-0.078,-0.0781,-0.0782,-0.078,-0.0778,-0.0778,0,0,0,0,0,0,-0.0642,-0.0635,-0.0602,-0.063,-0.0628,-0.0656,-0.0637,-0.0644,-0.065,-0.0694,-0.0704,-0.067,-0.0742,-0.0748,-0.0752,-0.074,-0.0782,-0.0783,-0.0781,-0.0779,-0.0778,-0.0704,0,0,0,0,0,0,-0.0644,-0.0635,-0.0614,-0.0627,-0.0625,-0.0577,-0.0635,-0.0644,-0.0641,-0.0648,-0.0693,-0.0702,-0.0744,-0.0749,-0.0753,-0.0743,-0.0784,-0.0782,-0.078,-0.0778,-0.0708,-0.0701,-0.0694,0,0,0,0,0,-0.0647,-0.0598,-0.0613,-0.0606,-0.0595,-0.0574,-0.0577,-0.0608,-0.0639,-0.0624,-0.0666,-0.0701,-0.0742,-0.0749,-0.0754,-0.0744,-0.0783,-0.0781,-0.0779,-0.0711,-0.0702,-0.0695,0,0,0,0,0,0,-0.0599,-0.0601,-0.0618,-0.0566,-0.0564,-0.0584,-0.0567,-0.0592,-0.0613,-0.0624,-0.0681,-0.0691,-0.0695,-0.072,-0.0727,-0.0739,-0.077,-0.0769,-0.0717,-0.0709,-0.0703,-0.0685,-0.0785,0,0,0,0,0,-0.0581,-0.0559,-0.0563,-0.0519,-0.0515,-0.0542,-0.0538,-0.0557,-0.0576,-0.0587,-0.0623,-0.0661,-0.0689,-0.0699,-0.0724,-0.0716,-0.0742,-0.0716,-0.0709,-0.0703,-0.0692,-0.0745,-0.0743,-0.0771,-0.0771,-0.0771,0,0,-0.054,-0.0544,-0.0525,-0.051,-0.0516,-0.0493,-0.0544,-0.0523,-0.0516,-0.0589,-0.059,-0.0633,-0.0681,-0.0687,-0.0691,-0.0707,-0.0699,-0.07,-0.0695,-0.0687,-0.0743,-0.074,-0.0738,-0.0769,-0.077,-0.077,0,0,-0.0455,-0.046,-0.0418,-0.042,-0.042,-0.0441,-0.0428,-0.0444,-0.0465,-0.0462,-0.0527,-0.056,-0.0584,-0.0632,-0.0656,-0.0619,-0.0661,-0.0625,-0.0577,-0.0628,-0.0627,-0.0626,-0.0613,-0.0611,-0.0622,-0.0622,-0.0622,0,-0.0407,-0.037,-0.0397,-0.0369,-0.0365,-0.0411,-0.0372,-0.0389,-0.0409,-0.0421,-0.0448,-0.0516,-0.0562,-0.0589,-0.0588,-0.0605,-0.0619,-0.0605,-0.062,-0.062,-0.062,-0.0608,-0.0608,-0.0618,-0.0619,-0.0619,-0.0619,0,-0.0308,-0.0283,-0.0255,-0.025,-0.0244,-0.0217,-0.0247,-0.0251,-0.0287,-0.0318,-0.0347,-0.0418,-0.046,-0.0486,-0.0527,-0.0551,-0.0551,-0.0607,-0.0641,-0.0613,-0.0601,-0.0602,-0.0613,-0.0614,-0.0615,-0.0616,0,0,-0.0194,-0.0189,-0.0181,-0.0173,-0.019,-0.0171,-0.0162,-0.017,-0.0161,-0.0213,-0.0212,-0.0292,-0.0344,-0.0375,-0.0441,-0.0493,-0.0505,-0.0542,-0.0546,-0.0526,-0.0568,-0.0482,-0.0475,-0.057,-0.0571,-0.0571,-0.0544,0,-0.0114,-0.0047,-0.0073,-0.0017,0.001,-0.0043,-0.0028,-0.0047,-0.0078,-0.0087,-0.0185,-0.0208,-0.0298,-0.0318,-0.0385,-0.0472,-0.051,-0.0504,-0.06,-0.0601,-0.0529,-0.0475,-0.0447,-0.0414,-0.0545,-0.0545,-0.0545,0,-0.0024,0.0002,0.0069,0.0076,0.0085,0.0108,0.0106,0.0115,0.0077,0.005,-0.0006,-0.0074,-0.0146,-0.0236,-0.0365,-0.0355,-0.0449,-0.0526,-0.0528,-0.0476,-0.0518,-0.0472,-0.0411,-0.065,-0.0547,-0.0547,-0.0547,0,0.0043,0.0093,0.0139,0.0144,0.0156,0.0172,0.0178,0.0161,0.0187,0.0139,0.0157,0.0042,0.0018,-0.0138,-0.0268,-0.0328,-0.0389,-0.05,-0.0506,-0.0499,-0.0506,-0.0498,-0.0689,-0.0601,-0.0601,-0.0601,-0.0601,0,0.0111,0.0154,0.0178,0.0202,0.0273,0.0248,0.0317,0.03,0.031,0.0385,0.0236,0.0293,0.0037,-0.0021,-0.0197,-0.0296,-0.0331,-0.0467,-0.0489,-0.0472,-0.0461,-0.0696,-0.0843,-0.06,-0.06,-0.06,-0.0601,0,0.0172,0.0183,0.0245,0.028,0.0305,0.0355,0.0428,0.0484,0.0468,0.0566,0.0563,0.0493,0.044,0.0228,0.0026,-0.0154,-0.0413,-0.0336,-0.0251,-0.0264,-0.0525,-0.0666,-0.0836,-0.0948,-0.0363,-0.036,-0.0358,0,0.0205,0.0244,0.0316,0.0375,0.0398,0.0479,0.055,0.0563,0.0648,0.0736,0.081,0.0782,0.0848,0.0608,0.0281,0.0027,-0.0265,-0.0166,-0.0305,-0.05,-0.0677,-0.0796,-0.0889,-0.0276,-0.0273,-0.0271,-0.027,0,0.027,0.0293,0.0344,0.0476,0.0563,0.0675,0.0787,0.0884,0.0948,0.1065,0.125,0.1317,0.1121,0.0915,0.054,0.0305,-0.0332,-0.0131,-0.0397,-0.0654,-0.0737,-0.0865,-0.0295,-0.0252,-0.0254,-0.0255,-0.0256,-0.0257,0.032,0.0379,0.0459,0.0586,0.0704,0.0874,0.0994,0.1153,0.1351,0.1592,0.1635,0.1843,0.1443,0.0964,0.0595,-0.0107,-0.0163,-0.0368,-0.0524,-0.0625,-0.0742,-0.0072,-0.002,-0.0021,-0.0021,-0.0021,-0.0022,0,0.0393,0.0466,0.0578,0.0738,0.0893,0.0936,0.116,0.1314,0.1605,0.1915,0.2136,0.2157,0.1628,0.1007,0.0075,-0.0429,-0.0693,-0.0735,-0.0971,-0.1054,-0.0512,-0.0519,-0.0495,-0.0495,-0.0495,-0.0494,-0.0494,-0.0494,0.0438,0.0557,0.0619,0.0879,0.1003,0.1224,0.1365,0.1621,0.1887,0.2318,0.2563,0.2714,0.2239,0.0523,-0.0645,-0.0922,-0.136,-0.1393,-0.1612,-0.1327,-0.1308,-0.129,-0.1335,-0.1482,-0.1483,-0.2111,-0.2118,-0.2123]}],[{"header":{"parameterUnit":"m.s-1","parameterCategory":2,"la1":30.2991,"la2":30.254,"lo1":-89.0895,"lo2":-89.0444,"dy":0.0017,"dx":0.0017,"nx":28,"ny":28,"refTime":"2024-12-18T09:00:00:Z","depth":"2","parameterNumber":2,"parameterNumberName":"U-component_of_CURRENTS"},"data":[0,0,0,0,0,0,0,0,0,0,0,0,0,0,0,0,0,0,0,0,0,0,0,0,0,0,0,0,0,0,0,0,0,0,0,0,0,0,0,0,0,0,0,0,0,0,0,0,0,0,0,0,0,0,0,0,0,0,0.2755,0.2756,0,0.2815,0.2815,0.2816,0.2868,0.2868,0.2869,0.2869,0.2892,0.2892,0.2892,0,0,0,0,0,0,0,0,0,0,0,0,0,0.2724,0.2724,0.2755,0.2756,0.2757,0.2815,0.2815,0.2816,0.2868,0.2868,0.2869,0.287,0.2892,0.2892,0.2892,0,0,0,0,0,0,0,0,0,0,0,0,0,0.2756,0.2724,0.2755,0.2789,0.2793,0.2814,0.2815,0.2816,0.2868,0.2868,0.2869,0.287,0.2892,0.2892,0.2892,0.2875,0,0,0.2892,0.2892,0,0,0,0,0,0,0,0,0.2754,0.2757,0.2783,0.2787,0.2791,0.2835,0.2813,0.2834,0.2867,0.2839,0.2869,0.2871,0.2868,0.2871,0.2881,0.2876,0.2877,0.2892,0.2892,0.2892,0.2892,0,0,0,0,0,0,0,0.2751,0.2755,0.2779,0.2784,0.2789,0.2815,0.282,0.2817,0.2848,0.2842,0.2846,0.2852,0.287,0.288,0.2881,0.2877,0.2892,0.2892,0.2892,0.2892,0.2952,0.2953,0,0,0,0,0,0,0.2741,0.2752,0.2777,0.2781,0.2774,0.2814,0.282,0.282,0.2849,0.2854,0.2851,0.2854,0.288,0.2881,0.2882,0.2945,0.2892,0.2892,0.2892,0.295,0.2952,0.2954,0,0,0,0,0,0,0.274,0.2742,0.2774,0.2768,0.2774,0.2814,0.2813,0.282,0.285,0.2856,0.2861,0.2875,0.2881,0.2882,0.291,0.2943,0.2892,0.2892,0.2949,0.2951,0.2953,0.3019,0,0,0,0,0,0,0.2738,0.2741,0.2742,0.2767,0.2774,0.2809,0.2813,0.2821,0.2851,0.2856,0.2878,0.288,0.2881,0.2911,0.2911,0.2943,0.2893,0.2947,0.295,0.2952,0.3015,0.3023,0.3031,0,0,0,0,0,0.2737,0.2736,0.2742,0.2745,0.2772,0.281,0.2817,0.2848,0.2852,0.2875,0.2892,0.288,0.2929,0.2912,0.2911,0.2944,0.2945,0.2949,0.2952,0.3011,0.3022,0.303,0,0,0,0,0,0,0.2715,0.2742,0.2749,0.2753,0.2789,0.282,0.2841,0.2855,0.2886,0.2893,0.2894,0.2898,0.2937,0.2929,0.291,0.2971,0.2937,0.294,0.2982,0.2992,0.2999,0.3029,0.2893,0,0,0,0,0,0.271,0.2723,0.2753,0.276,0.2779,0.2811,0.283,0.2853,0.288,0.2896,0.2906,0.2922,0.2947,0.296,0.2973,0.2999,0.3026,0.3022,0.303,0.3037,0.3062,0.3136,0.3154,0.2965,0.2965,0.2965,0,0,0.2707,0.2719,0.273,0.2758,0.2786,0.2819,0.2826,0.2865,0.2901,0.289,0.2935,0.2946,0.2959,0.3001,0.3017,0.3001,0.3104,0.3041,0.3047,0.3069,0.3142,0.3161,0.3177,0.2968,0.2967,0.2967,0,0,0.2709,0.2718,0.2738,0.2768,0.2812,0.2834,0.2849,0.289,0.2923,0.2956,0.2972,0.301,0.302,0.3061,0.3075,0.3131,0.3141,0.3128,0.3195,0.3267,0.3283,0.3298,0.3353,0.3373,0.3134,0.3135,0.3135,0,0.271,0.2724,0.2751,0.2778,0.2809,0.2842,0.288,0.2916,0.2961,0.2999,0.2978,0.3051,0.3054,0.314,0.3167,0.3151,0.319,0.3156,0.3279,0.3294,0.3309,0.3361,0.3382,0.3138,0.3138,0.3137,0.3137,0,0.2725,0.2747,0.2764,0.2808,0.2848,0.2886,0.2939,0.2984,0.3008,0.3042,0.3122,0.314,0.3194,0.3198,0.3198,0.3311,0.3304,0.3278,0.3257,0.3332,0.3382,0.3402,0.3143,0.3142,0.3141,0.314,0,0,0.2705,0.2766,0.2773,0.2806,0.287,0.2906,0.2977,0.3058,0.3122,0.3155,0.324,0.3287,0.3311,0.3333,0.3349,0.3411,0.3534,0.3397,0.3399,0.3457,0.3699,0.3623,0.3638,0.3537,0.3541,0.3544,0.3693,0,0.2716,0.2768,0.2799,0.2863,0.2903,0.2966,0.3027,0.3107,0.3174,0.326,0.3312,0.3385,0.336,0.3402,0.3465,0.3529,0.3593,0.3497,0.3615,0.3619,0.3547,0.366,0.3381,0.3484,0.3712,0.3716,0.3718,0,0.2715,0.2757,0.2819,0.2905,0.293,0.2972,0.3104,0.3168,0.3299,0.3362,0.3457,0.3494,0.3617,0.3561,0.3724,0.367,0.37,0.3726,0.3732,0.3657,0.3582,0.3447,0.3512,0.3752,0.3749,0.3747,0.3744,0,0.2687,0.2767,0.2818,0.2847,0.2947,0.3001,0.3065,0.3197,0.3286,0.3446,0.3521,0.3648,0.3732,0.3801,0.385,0.3814,0.4002,0.3949,0.3906,0.39,0.3683,0.3652,0.4057,0.4057,0.4056,0.4056,0.4055,0,0.2673,0.272,0.281,0.2836,0.2914,0.2994,0.3104,0.3199,0.3356,0.3459,0.3574,0.3677,0.3801,0.39,0.3919,0.3989,0.4062,0.3958,0.3952,0.3696,0.3665,0.3904,0.3885,0.4061,0.406,0.4059,0.4058,0,0.2636,0.269,0.2757,0.2864,0.2896,0.296,0.3112,0.3198,0.3356,0.3503,0.3559,0.3759,0.3896,0.3977,0.411,0.4084,0.414,0.4127,0.3814,0.3768,0.3974,0.3957,0.4135,0.4134,0.4133,0.4132,0.4131,0,0.2628,0.2651,0.2756,0.2796,0.2845,0.2948,0.3013,0.3182,0.328,0.3526,0.3584,0.3784,0.3881,0.4061,0.4074,0.4125,0.4148,0.3869,0.3744,0.4017,0.3993,0.3975,0.3959,0.3482,0.3476,0.3472,0.3468,0,0.2612,0.2644,0.2699,0.277,0.2837,0.2916,0.3024,0.3087,0.3275,0.3395,0.3556,0.3658,0.3855,0.3806,0.3886,0.3861,0.3843,0.3774,0.4173,0.3498,0.3412,0.3384,0.3387,0.3425,0.3429,0.3432,0.3435,0.3436,0.2596,0.2627,0.2681,0.2744,0.2816,0.2853,0.2856,0.2975,0.3075,0.318,0.3375,0.3427,0.3544,0.3536,0.3459,0.3421,0.3676,0.351,0.3521,0.3538,0.3429,0.3345,0.3325,0.3328,0.3331,0.3334,0.3336,0,0.2557,0.2597,0.2648,0.2695,0.2706,0.2785,0.2832,0.2787,0.2805,0.2962,0.3052,0.2885,0.291,0.3004,0.2906,0.2946,0.2875,0.2811,0.2686,0.2735,0.2777,0.2621,0.2307,0.2303,0.2299,0.2295,0,0,0.2541,0.2552,0.2566,0.2556,0.2589,0.2538,0.2516,0.2456,0.2501,0.2475,0.25,0.2749,0.2929,0.2554,0.255,0.2403,0.2526,0.2314,0.3157,0.3059,0.3094,0.3223,0.3047,0,0,0,0,0]},{"header":{"parameterUnit":"m.s-1","parameterCategory":2,"la1":30.2991,"la2":30.254,"lo1":-89.0895,"lo2":-89.0444,"dy":0.0017,"dx":0.0017,"nx":28,"ny":28,"refTime":"2024-12-18T09:00:00:Z","depth":"2","parameterNumber":3,"parameterNumberName":"V-component_of_CURRENTS"},"data":[0,0,0,0,0,0,0,0,0,0,0,0,0,0,0,0,0,0,0,0,0,0,0,0,0,0,0,0,0,0,0,0,0,0,0,0,0,0,0,0,0,0,0,0,0,0,0,0,0,0,0,0,0,0,0,0,0,0,0.0151,0.015,0,0.0074,0.0073,0.0072,0.0012,0.0012,0.0012,0.0011,-0.0111,-0.0113,-0.0116,0,0,0,0,0,0,0,0,0,0,0,0,0,0.0176,0.0176,0.0151,0.015,0.0149,0.0075,0.0073,0.0072,0.0013,0.0012,0.0011,0.0011,-0.011,-0.0113,-0.0116,0,0,0,0,0,0,0,0,0,0,0,0,0,0.0138,0.0176,0.0151,0.0112,0.0107,0.0075,0.0073,0.0072,0.0013,0.0012,0.0011,0.0011,-0.0109,-0.0113,-0.0117,-0.013,0,0,-0.013,-0.0132,0,0,0,0,0,0,0,0,0.014,0.0137,0.0118,0.0114,0.0109,0.0054,0.0038,0.0003,0.0013,0.0047,0.0011,0.001,-0.0058,-0.0067,-0.0081,-0.0135,-0.0141,-0.013,-0.0133,-0.0135,-0.0136,0,0,0,0,0,0,0,0.0143,0.0139,0.0119,0.0117,0.0112,0.0074,0.0068,0.003,-0.0003,0.0044,0.004,0.0034,-0.0061,-0.0077,-0.0085,-0.0142,-0.013,-0.0134,-0.0136,-0.0138,-0.0225,-0.0225,0,0,0,0,0,0,0.016,0.0142,0.0121,0.0117,0.0125,0.0075,0.0068,0.0071,-0.0002,-0.0013,0.0035,0.0031,-0.0069,-0.008,-0.0089,-0.0108,-0.0135,-0.0139,-0.0141,-0.0225,-0.0225,-0.0225,0,0,0,0,0,0,0.0161,0.0159,0.0125,0.0128,0.0121,0.0076,0.0079,0.007,0.0052,-0.0008,-0.002,0.0026,-0.007,-0.0083,-0.0121,-0.0113,-0.014,-0.0144,-0.0226,-0.0225,-0.0225,-0.0146,0,0,0,0,0,0,0.0162,0.016,0.0166,0.013,0.0122,0.0109,0.0079,0.0069,0.005,0.0045,-0.002,-0.0031,-0.0072,-0.0115,-0.0126,-0.0119,-0.0148,-0.0226,-0.0226,-0.0225,-0.0149,-0.0143,-0.0138,0,0,0,0,0,0.0163,0.0175,0.0167,0.0164,0.0133,0.0109,0.0101,0.0065,0.0051,0.0046,0.0003,-0.003,-0.012,-0.0118,-0.0131,-0.0126,-0.0226,-0.0226,-0.0225,-0.0151,-0.0144,-0.0138,0,0,0,0,0,0,0.0184,0.0169,0.0159,0.0165,0.0141,0.01,0.0092,0.007,0.0033,0.0029,-0.0028,-0.0043,-0.0074,-0.011,-0.0107,-0.015,-0.0178,-0.018,-0.0117,-0.0111,-0.0105,-0.008,-0.0151,0,0,0,0,0,0.0196,0.0203,0.0176,0.018,0.0172,0.0135,0.012,0.0099,0.0064,0.0047,0.0003,-0.0043,-0.0081,-0.0104,-0.0144,-0.0167,-0.0198,-0.0172,-0.0167,-0.0162,-0.015,-0.0189,-0.0185,-0.0223,-0.0223,-0.0223,0,0,0.0201,0.0197,0.0197,0.0185,0.0164,0.0165,0.0124,0.011,0.011,0.004,0.0022,-0.0026,-0.0083,-0.0109,-0.0126,-0.0139,-0.0168,-0.0161,-0.0156,-0.0147,-0.0188,-0.0184,-0.0181,-0.0223,-0.0223,-0.0223,0,0,0.0223,0.0217,0.0231,0.0221,0.0204,0.0186,0.0187,0.0151,0.0132,0.0109,0.0061,0.0023,-0.0038,-0.0073,-0.0099,-0.0087,-0.0137,-0.0105,-0.0057,-0.0094,-0.0091,-0.0089,-0.012,-0.0121,-0.0102,-0.0101,-0.0101,0,0.023,0.0254,0.0228,0.0242,0.0247,0.0203,0.0222,0.0196,0.0153,0.0148,0.0114,0.0036,-0.0017,-0.0041,-0.0042,-0.0073,-0.0103,-0.0075,-0.0085,-0.0084,-0.0083,-0.0116,-0.0118,-0.0097,-0.0098,-0.0098,-0.0099,0,0.0266,0.0284,0.0292,0.0304,0.0301,0.031,0.0284,0.0274,0.0247,0.0222,0.019,0.0114,0.0072,0.0043,-0.0001,-0.0016,-0.0043,-0.0073,-0.0097,-0.0074,-0.0111,-0.0114,-0.0092,-0.0093,-0.0094,-0.0095,0,0,0.0287,0.0314,0.0318,0.0349,0.0343,0.0351,0.0353,0.0351,0.037,0.0303,0.0315,0.0227,0.0186,0.0153,0.0091,0.0049,0.0021,-0.0006,-0.001,-0.0027,-0.0059,-0.0089,-0.0096,-0.0013,-0.0014,-0.0014,-0.0086,0,0.0326,0.0383,0.0381,0.0436,0.0468,0.0445,0.0458,0.0448,0.0427,0.0423,0.034,0.0318,0.0228,0.021,0.0153,0.0059,0.0014,0.0044,-0.0088,-0.0091,-0.0113,-0.0101,-0.0074,-0.0137,-0.009,-0.0091,-0.0091,0,0.0367,0.0407,0.0471,0.0531,0.0542,0.0562,0.06,0.061,0.0585,0.0566,0.0522,0.0453,0.0382,0.0302,0.0153,0.0175,0.0067,-0.0015,-0.0021,-0.0076,-0.0128,-0.0156,-0.0147,-0.0098,-0.0098,-0.0097,-0.0097,0,0.0417,0.0476,0.054,0.0556,0.0602,0.0628,0.0653,0.0653,0.0692,0.0663,0.0676,0.057,0.0535,0.038,0.0195,0.0175,0.0033,-0.0015,-0.0143,-0.0146,-0.0163,-0.0167,-0.0117,-0.0117,-0.0117,-0.0117,-0.0117,0,0.0474,0.0525,0.057,0.0606,0.0694,0.0698,0.0784,0.0786,0.0814,0.0875,0.0758,0.0774,0.0552,0.0436,0.0246,0.0048,0.007,-0.0128,-0.0166,-0.0135,-0.0136,-0.0135,-0.0136,-0.012,-0.0119,-0.0118,-0.0118,0,0.0522,0.0545,0.063,0.0694,0.0721,0.0787,0.0887,0.0952,0.0953,0.1027,0.1022,0.0938,0.0783,0.0548,0.0314,0.0137,-0.0065,-0.0144,-0.0092,-0.0123,-0.0234,-0.0231,-0.0291,-0.0293,-0.0294,-0.0295,-0.0296,0,0.0553,0.0599,0.07,0.0764,0.0797,0.0895,0.097,0.1017,0.1103,0.1133,0.1184,0.106,0.0993,0.0639,0.0301,-0.0027,-0.007,-0.0212,-0.0255,-0.022,-0.0251,-0.0245,-0.024,-0.0246,-0.0247,-0.0247,-0.0247,0,0.062,0.065,0.0725,0.0854,0.0946,0.1068,0.1181,0.1272,0.1332,0.1385,0.1442,0.1386,0.1041,0.0723,0.0268,0.0044,-0.0163,-0.0231,-0.0202,-0.0206,-0.0184,-0.0212,-0.0207,-0.0251,-0.025,-0.025,-0.025,-0.025,0.0671,0.0737,0.0834,0.0962,0.1076,0.1227,0.1346,0.1468,0.1607,0.1688,0.1632,0.155,0.1176,0.0597,0.0211,-0.0194,-0.0186,-0.0326,-0.0322,-0.0319,-0.03,-0.0282,-0.0363,-0.0363,-0.0364,-0.0364,-0.0364,0,0.0743,0.0817,0.0937,0.1095,0.1236,0.1283,0.1482,0.1594,0.1766,0.1808,0.1829,0.1466,0.1094,0.0664,0.0061,-0.0299,-0.0323,-0.0405,-0.0354,-0.0348,-0.0344,-0.0325,-0.0396,-0.0397,-0.0398,-0.0398,0,0,0.0781,0.0903,0.0966,0.1199,0.132,0.152,0.1642,0.1779,0.1864,0.191,0.1857,0.1734,0.1218,0.0784,0.0289,-0.0051,-0.0113,-0.0118,-0.0056,0.0068,0.0077,-0.0267,-0.0227,0,0,0,0,0]}],[{"header":{"parameterUnit":"m.s-1","parameterCategory":2,"la1":30.2991,"la2":30.254,"lo1":-89.0895,"lo2":-89.0444,"dy":0.0017,"dx":0.0017,"nx":28,"ny":28,"refTime":"2024-12-18T09:00:00:Z","depth":"4","parameterNumber":2,"parameterNumberName":"U-component_of_CURRENTS"},"data":[0,0,0,0,0,0,0,0,0,0,0,0,0,0,0,0,0,0,0,0,0,0,0,0,0,0,0,0,0,0,0,0,0,0,0,0,0,0,0,0,0,0,0,0,0,0,0,0,0,0,0,0,0,0,0,0,0,0,0.1679,0.168,0,0.1763,0.1764,0.1765,0.1812,0.1813,0.1813,0.1814,0.1907,0.1909,0.1911,0,0,0,0,0,0,0,0,0,0,0,0,0,0.1552,0.1554,0.1679,0.168,0.1681,0.1763,0.1764,0.1765,0.1812,0.1813,0.1813,0.1814,0.1906,0.1909,0.1911,0,0,0,0,0,0,0,0,0,0,0,0,0,0.1616,0.1555,0.1678,0.1717,0.1722,0.1763,0.1764,0.1765,0.1812,0.1813,0.1814,0.1814,0.1905,0.1908,0.1911,0.1917,0,0,0.1921,0.1922,0,0,0,0,0,0,0,0,0.1612,0.162,0.171,0.1715,0.172,0.1781,0.1754,0.1818,0.1812,0.1774,0.1814,0.1815,0.1867,0.1873,0.1883,0.1921,0.1925,0.1921,0.1923,0.1924,0.1925,0,0,0,0,0,0,0,0.1608,0.1617,0.1709,0.1712,0.1718,0.1729,0.1738,0.1766,0.1814,0.1778,0.1782,0.1797,0.1869,0.188,0.1886,0.1927,0.1921,0.1924,0.1926,0.1927,0.2078,0.208,0,0,0,0,0,0,0.1604,0.1613,0.1706,0.1712,0.167,0.1731,0.1741,0.1758,0.1813,0.1823,0.1796,0.1799,0.1874,0.1882,0.1889,0.1984,0.1924,0.1927,0.1929,0.2076,0.2078,0.208,0,0,0,0,0,0,0.1601,0.1611,0.1703,0.1666,0.1679,0.1733,0.1751,0.1759,0.1806,0.1828,0.1837,0.1838,0.1875,0.1885,0.1948,0.1985,0.1929,0.1931,0.2073,0.2076,0.2079,0.2119,0,0,0,0,0,0,0.1597,0.161,0.1638,0.1666,0.1681,0.1748,0.1751,0.1761,0.1813,0.1818,0.1866,0.1874,0.1876,0.1944,0.1951,0.1988,0.1934,0.207,0.2075,0.2078,0.2115,0.2123,0.213,0,0,0,0,0,0.1592,0.1624,0.1638,0.1651,0.1712,0.175,0.1759,0.1796,0.1815,0.1839,0.1878,0.1874,0.1975,0.1948,0.1956,0.1995,0.2068,0.2073,0.2078,0.2111,0.2121,0.213,0,0,0,0,0,0,0.1591,0.1633,0.1649,0.1695,0.173,0.176,0.1797,0.1817,0.1867,0.1886,0.19,0.191,0.198,0.1986,0.1956,0.2052,0.2022,0.2029,0.2044,0.2054,0.2061,0.2064,0.1936,0,0,0,0,0,0.1601,0.1637,0.1671,0.1714,0.1735,0.1772,0.18,0.1825,0.1865,0.1889,0.1924,0.1964,0.2,0.2027,0.206,0.2111,0.2125,0.2144,0.2152,0.2158,0.2168,0.2219,0.2232,0.2096,0.2096,0.2096,0,0,0.1614,0.1644,0.1666,0.1717,0.1751,0.1783,0.1792,0.1847,0.1882,0.1891,0.1966,0.1997,0.2022,0.208,0.2111,0.2093,0.2205,0.2164,0.2169,0.2175,0.2226,0.2239,0.225,0.21,0.2099,0.2099,0,0,0.1639,0.1685,0.1714,0.1743,0.18,0.1824,0.1847,0.1898,0.1933,0.1998,0.2016,0.2071,0.213,0.2152,0.2168,0.2241,0.2245,0.2258,0.2297,0.2348,0.2359,0.2369,0.2403,0.2416,0.226,0.226,0.226,0,0.1653,0.1692,0.173,0.1761,0.1792,0.1844,0.1875,0.1918,0.1986,0.2021,0.2033,0.2139,0.2161,0.2222,0.2248,0.2257,0.2284,0.2255,0.2356,0.2366,0.2376,0.2408,0.2422,0.2263,0.2262,0.2262,0.2262,0,0.1681,0.1725,0.175,0.1802,0.1841,0.1885,0.1936,0.1994,0.2047,0.2084,0.2176,0.2214,0.2277,0.2292,0.2293,0.2375,0.2372,0.2358,0.2326,0.2391,0.2422,0.2435,0.2266,0.2265,0.2265,0.2264,0,0,0.1668,0.1751,0.1761,0.1789,0.1867,0.1896,0.1971,0.2039,0.21,0.2173,0.2246,0.2313,0.2352,0.2374,0.2392,0.2433,0.2519,0.2431,0.2433,0.2455,0.2633,0.249,0.2491,0.2528,0.2531,0.2533,0.2627,0,0.1677,0.1731,0.1776,0.1838,0.1868,0.1937,0.2,0.2075,0.2151,0.2238,0.2297,0.2382,0.2377,0.2428,0.2469,0.2512,0.2557,0.2495,0.2577,0.2579,0.2435,0.2502,0.2541,0.2636,0.2639,0.2642,0.2643,0,0.1675,0.1715,0.177,0.1853,0.1875,0.1928,0.2039,0.2103,0.2228,0.2293,0.2388,0.2447,0.2539,0.2523,0.2631,0.2597,0.2628,0.2647,0.2651,0.2513,0.2461,0.256,0.2667,0.2665,0.2663,0.2662,0.266,0,0.1622,0.1706,0.1752,0.1779,0.1883,0.1936,0.2005,0.2127,0.2199,0.2347,0.2425,0.253,0.2613,0.2665,0.2726,0.2695,0.2832,0.2786,0.2685,0.2675,0.2756,0.2744,0.2866,0.2866,0.2865,0.2865,0.2865,0,0.159,0.1628,0.1739,0.1761,0.1836,0.1919,0.2021,0.2108,0.2249,0.2335,0.2461,0.2545,0.266,0.2748,0.2768,0.2773,0.2873,0.2706,0.2695,0.2771,0.276,0.2765,0.2752,0.2869,0.2868,0.2867,0.2867,0,0.1511,0.1588,0.1643,0.1763,0.1813,0.1865,0.2026,0.2089,0.2244,0.2364,0.2423,0.2597,0.2706,0.2797,0.2896,0.2822,0.2841,0.2821,0.2915,0.2906,0.2636,0.2624,0.2693,0.2689,0.2685,0.2682,0.268,0,0.1469,0.1494,0.1628,0.1668,0.1729,0.1834,0.1904,0.2072,0.2143,0.237,0.2409,0.2593,0.2686,0.2712,0.2812,0.2848,0.2819,0.2802,0.2691,0.2638,0.2622,0.2616,0.2609,0.2674,0.2673,0.2672,0.2672,0,0.138,0.1445,0.1488,0.1583,0.1664,0.1741,0.1859,0.1903,0.2087,0.2254,0.2349,0.2422,0.2547,0.2619,0.2686,0.2699,0.2788,0.2764,0.277,0.2665,0.2617,0.2602,0.26,0.2659,0.2661,0.2662,0.2663,0,0.1316,0.1324,0.1404,0.1472,0.1562,0.1607,0.1691,0.1783,0.1885,0.2129,0.2159,0.2349,0.2518,0.2546,0.2601,0.2614,0.256,0.2452,0.2473,0.2487,0.2378,0.2283,0.2226,0,0,0,0,0,0.1247,0.1245,0.1289,0.1347,0.1425,0.1493,0.1637,0.1725,0.1915,0.1925,0.2038,0.2144,0.2241,0.2348,0.2321,0.2509,0.2565,0.2465,0.2449,0.2592,0.2606,0.2496,0,0,0,0,0,0,0.1199,0.123,0.1242,0.1228,0.1247,0.1328,0.1416,0.1547,0.1573,0.1774,0.1847,0.2005,0.2141,0.2232,0.2275,0.2307,0.2251,0.2593,0.2587,0.2584,0.2597,0.2608,0.25,0,0,0,0,0]},{"header":{"parameterUnit":"m.s-1","parameterCategory":2,"la1":30.2991,"la2":30.254,"lo1":-89.0895,"lo2":-89.0444,"dy":0.0017,"dx":0.0017,"nx":28,"ny":28,"refTime":"2024-12-18T09:00:00:Z","depth":"4","parameterNumber":3,"parameterNumberName":"V-component_of_CURRENTS"},"data":[0,0,0,0,0,0,0,0,0,0,0,0,0,0,0,0,0,0,0,0,0,0,0,0,0,0,0,0,0,0,0,0,0,0,0,0,0,0,0,0,0,0,0,0,0,0,0,0,0,0,0,0,0,0,0,0,0,0,0.0201,0.0201,0,0.015,0.0149,0.0149,0.0123,0.0123,0.0123,0.0123,0.0035,0.0033,0.0031,0,0,0,0,0,0,0,0,0,0,0,0,0,0.0235,0.0235,0.0202,0.0201,0.02,0.015,0.0149,0.0148,0.0123,0.0123,0.0123,0.0123,0.0036,0.0033,0.0031,0,0,0,0,0,0,0,0,0,0,0,0,0,0.0206,0.0235,0.0202,0.0182,0.0179,0.015,0.0149,0.0148,0.0123,0.0123,0.0123,0.0123,0.0037,0.0034,0.003,0.0008,0,0,0.002,0.0018,0,0,0,0,0,0,0,0,0.0208,0.0205,0.0185,0.0183,0.018,0.0143,0.0129,0.01,0.0123,0.0144,0.0123,0.0123,0.0068,0.0062,0.0053,0.0004,0.0,0.0019,0.0017,0.0016,0.0015,0,0,0,0,0,0,0,0.021,0.0206,0.0181,0.0185,0.0182,0.0161,0.0157,0.0123,0.0106,0.0142,0.014,0.0135,0.0067,0.0056,0.005,-0.0001,0.0019,0.0016,0.0014,0.0013,-0.0067,-0.0067,0,0,0,0,0,0,0.0219,0.0209,0.0182,0.0179,0.0195,0.016,0.0156,0.0155,0.0107,0.01,0.0135,0.0134,0.0062,0.0054,0.0047,0.0039,0.0016,0.0012,0.001,-0.0067,-0.0067,-0.0067,0,0,0,0,0,0,0.022,0.0217,0.0185,0.0193,0.0187,0.016,0.0159,0.0154,0.0147,0.0102,0.0094,0.0134,0.0062,0.0052,0.0024,0.0035,0.0011,0.0008,-0.0067,-0.0067,-0.0067,0.0009,0,0,0,0,0,0,0.0221,0.0218,0.0221,0.0193,0.0187,0.0172,0.0158,0.0153,0.0143,0.0142,0.0098,0.009,0.0061,0.0029,0.002,0.0029,0.0005,-0.0067,-0.0067,-0.0067,0.0007,0.0012,0.0016,0,0,0,0,0,0.0222,0.0225,0.0221,0.0218,0.0192,0.0172,0.0167,0.0147,0.0143,0.0141,0.0114,0.0091,0.0023,0.0027,0.0016,0.0024,-0.0067,-0.0067,-0.0067,0.0004,0.0011,0.0016,0,0,0,0,0,0,0.0234,0.0222,0.0217,0.0214,0.0198,0.0168,0.0164,0.0152,0.0129,0.013,0.009,0.0079,0.0058,0.0027,0.0032,-0.0,-0.0026,-0.0028,0.0032,0.0037,0.0042,0.0061,0.0002,0,0,0,0,0,0.0241,0.0244,0.0224,0.0221,0.0217,0.0193,0.0183,0.0172,0.0148,0.0139,0.0109,0.0076,0.0049,0.0033,0.0001,-0.0018,-0.0053,-0.0021,-0.0016,-0.0011,-0.0004,-0.0044,-0.0041,-0.0067,-0.0067,-0.0067,0,0,0.0242,0.0238,0.0238,0.0225,0.0212,0.0214,0.0187,0.0178,0.0182,0.0131,0.0125,0.009,0.0046,0.0029,0.0017,0.0006,-0.0025,-0.0011,-0.0007,-0.0002,-0.0043,-0.0041,-0.0039,-0.0067,-0.0067,-0.0067,0,0,0.0253,0.0247,0.0256,0.0251,0.024,0.0228,0.023,0.0206,0.0199,0.0182,0.0153,0.0128,0.0079,0.0059,0.004,0.0049,0.0001,0.0034,0.0076,0.0038,0.004,0.0041,-0.0004,-0.0008,0.0038,0.0039,0.0039,0,0.0256,0.027,0.0253,0.0263,0.027,0.0241,0.0257,0.0242,0.0212,0.0212,0.0189,0.0132,0.0096,0.0084,0.0088,0.0062,0.0026,0.0063,0.0046,0.0046,0.0047,-0.0001,-0.0005,0.0042,0.0042,0.0041,0.0041,0,0.0275,0.029,0.0295,0.0308,0.0308,0.0315,0.0302,0.0299,0.0285,0.0268,0.0248,0.0195,0.0165,0.0147,0.012,0.0108,0.0077,0.0057,0.0037,0.0054,0.0002,-0.0004,0.0047,0.0046,0.0045,0.0044,0,0,0.0278,0.0307,0.031,0.0338,0.0339,0.0347,0.0356,0.036,0.0376,0.0331,0.0339,0.0286,0.0256,0.0233,0.0192,0.0158,0.0126,0.0114,0.011,0.0079,0.0033,0.0007,-0.0002,0.0102,0.0102,0.0101,-0.0006,0,0.0303,0.0348,0.0351,0.0398,0.0425,0.0418,0.0434,0.0432,0.0419,0.0413,0.0358,0.0343,0.0289,0.0279,0.0236,0.0153,0.0114,0.0156,0.0011,0.0007,-0.0008,-0.0008,0.01,-0.001,-0.0012,-0.0013,-0.0014,0,0.0326,0.0361,0.0414,0.047,0.048,0.0501,0.0539,0.0549,0.0531,0.0519,0.0488,0.0437,0.0384,0.0335,0.0204,0.0231,0.0143,0.0072,0.0066,0.0014,-0.0029,-0.0033,-0.0025,-0.0024,-0.0023,-0.0023,-0.0022,0,0.0355,0.0408,0.0463,0.048,0.0525,0.0554,0.0578,0.0582,0.0609,0.0589,0.0592,0.0512,0.0475,0.0356,0.0205,0.0204,0.0049,0.0028,-0.008,-0.0084,-0.0061,-0.0062,-0.0061,-0.0061,-0.0061,-0.006,-0.006,0,0.0388,0.0432,0.0486,0.0517,0.0591,0.0604,0.0671,0.0679,0.0695,0.0727,0.0652,0.0642,0.0478,0.0366,0.0225,0.0051,0.0061,-0.0073,-0.011,-0.0029,-0.0025,-0.0067,-0.0066,-0.0064,-0.0064,-0.0063,-0.0062,0,0.0409,0.044,0.0512,0.0578,0.0608,0.0661,0.0744,0.0787,0.0792,0.0828,0.0825,0.0735,0.0584,0.0405,0.0203,0.0083,-0.0083,-0.0146,-0.0051,-0.0081,-0.0197,-0.0191,-0.0275,-0.0277,-0.0278,-0.0279,-0.028,0,0.0423,0.0462,0.056,0.0612,0.0649,0.0732,0.0791,0.0834,0.0882,0.088,0.0895,0.077,0.0681,0.0383,0.0186,-0.009,-0.0129,-0.0216,-0.0203,-0.019,-0.0218,-0.0209,-0.0202,-0.0283,-0.0283,-0.0283,-0.0284,0,0.0452,0.0486,0.0548,0.0658,0.0737,0.0832,0.0916,0.0956,0.0996,0.0999,0.0952,0.0796,0.062,0.0383,0.0165,-0.0031,-0.0159,-0.0232,-0.023,-0.0219,-0.02,-0.0224,-0.0215,-0.0289,-0.0288,-0.0288,-0.0287,0,0.0473,0.052,0.0603,0.0702,0.0804,0.09,0.0945,0.0996,0.104,0.1031,0.1008,0.082,0.0713,0.0412,0.0212,0.0013,-0.004,-0.0099,-0.0105,-0.0102,-0.0024,0.0026,-0.0022,0,0,0,0,0,0.0493,0.0551,0.0642,0.0752,0.0852,0.0918,0.1016,0.1051,0.1081,0.1058,0.104,0.0875,0.0574,0.0446,0.0242,0.0168,-0.0084,-0.0079,-0.0157,-0.0317,-0.0311,-0.0252,0,0,0,0,0,0,0.0507,0.0592,0.0642,0.0775,0.0854,0.0972,0.1038,0.1062,0.1053,0.1045,0.0892,0.0817,0.0527,0.0689,0.0235,0.0173,0.0094,-0.0218,-0.0222,-0.032,-0.0315,-0.031,-0.0248,0,0,0,0,0]}]]